Time,TemperatureF,DewpointF,PressureIn,WindDirection,WindDirectionDegrees,WindSpeedMPH,WindSpeedGustMPH,Humidity,HourlyPrecipIn,Conditions,Clouds,dailyrainin,SoftwareType,DateUTC
2013-08-09 00:02:00,82.8,78.1,29.85,SSE,149,0.0,0.0,86,0.00,CLR,,0.00,WeatherDisplay:10.37,2013-08-09 05:02:00,
2013-08-09 00:07:00,82.8,75.6,29.85,SSE,149,0.0,0.0,79,0.00,CLR,,0.00,WeatherDisplay:10.37,2013-08-09 05:07:00,
2013-08-09 00:12:00,82.9,73.8,29.85,SSE,150,0.0,0.0,74,0.00,CLR,,0.00,WeatherDisplay:10.37,2013-08-09 05:12:00,
2013-08-09 00:17:00,82.9,73.0,29.85,SSE,150,0.0,0.0,72,0.00,CLR,,0.00,WeatherDisplay:10.37,2013-08-09 05:17:00,
2013-08-09 00:22:00,82.9,72.6,29.85,SSE,150,0.0,0.0,71,0.00,CLR,,0.00,WeatherDisplay:10.37,2013-08-09 05:22:00,
2013-08-09 00:27:00,82.8,72.4,29.82,SSE,150,0.0,0.0,71,0.00,CLR,,0.00,WeatherDisplay:10.37,2013-08-09 05:27:00,
2013-08-09 00:32:00,82.6,72.2,29.82,SSE,157,0.0,0.0,71,0.00,CLR,,0.00,WeatherDisplay:10.37,2013-08-09 05:32:00,
2013-08-09 00:37:00,82.4,72.0,29.82,ENE,58,0.0,0.0,71,0.00,CLR,,0.00,WeatherDisplay:10.37,2013-08-09 05:37:00,
2013-08-09 00:42:00,82.4,72.0,29.85,ENE,68,0.0,0.0,71,0.00,CLR,,0.00,WeatherDisplay:10.37,2013-08-09 05:42:00,
2013-08-09 00:47:00,82.4,72.0,29.85,SSE,158,2.3,0.0,71,0.00,CLR,,0.00,WeatherDisplay:10.37,2013-08-09 05:47:00,
2013-08-09 00:52:00,82.4,72.0,29.85,SSE,153,0.0,0.0,71,0.00,CLR,,0.00,WeatherDisplay:10.37,2013-08-09 05:52:00,
2013-08-09 00:57:00,82.4,72.0,29.85,SE,138,2.7,0.0,71,0.00,CLR,,0.00,WeatherDisplay:10.37,2013-08-09 05:57:00,
2013-08-09 01:02:00,82.4,72.0,29.85,SE,126,3.5,3.5,71,0.00,CLR,,0.00,WeatherDisplay:10.37,2013-08-09 06:02:00,
2013-08-09 01:07:00,82.6,72.2,29.85,East,97,4.6,4.6,71,0.00,CLR,,0.00,WeatherDisplay:10.37,2013-08-09 06:07:00,
2013-08-09 01:12:00,82.6,71.8,29.85,SE,145,2.3,0.0,70,0.00,CLR,,0.00,WeatherDisplay:10.37,2013-08-09 06:12:00,
2013-08-09 01:17:00,82.6,71.8,29.85,SE,141,2.3,0.0,70,0.00,CLR,,0.00,WeatherDisplay:10.37,2013-08-09 06:17:00,
2013-08-09 01:22:00,82.8,71.5,29.85,SSE,161,2.7,0.0,69,0.00,CLR,,0.00,WeatherDisplay:10.37,2013-08-09 06:22:00,
2013-08-09 01:27:00,82.8,71.1,29.85,SE,125,3.5,3.5,68,0.00,CLR,,0.00,WeatherDisplay:10.37,2013-08-09 06:27:00,
2013-08-09 01:32:00,82.8,70.7,29.85,South,176,3.5,3.5,67,0.00,CLR,,0.00,WeatherDisplay:10.37,2013-08-09 06:32:00,
2013-08-09 01:37:00,82.9,70.4,29.85,SSE,155,3.5,3.5,66,0.00,CLR,,0.00,WeatherDisplay:10.37,2013-08-09 06:37:00,
2013-08-09 01:42:00,82.9,70.4,29.85,SW,226,3.5,3.5,66,0.00,CLR,,0.00,WeatherDisplay:10.37,2013-08-09 06:42:00,
2013-08-09 01:47:00,82.9,70.4,29.85,WNW,291,3.5,3.5,66,0.00,CLR,,0.00,WeatherDisplay:10.37,2013-08-09 06:47:00,
2013-08-09 01:52:00,82.8,69.8,29.85,SSW,199,3.5,3.5,65,0.00,CLR,,0.00,WeatherDisplay:10.37,2013-08-09 06:52:00,
2013-08-09 01:57:00,82.8,69.8,29.85,WSW,254,3.1,3.1,65,0.00,CLR,,0.00,WeatherDisplay:10.37,2013-08-09 06:57:00,
2013-08-09 02:02:00,82.6,69.6,29.85,SE,125,2.7,0.0,65,0.00,CLR,,0.00,WeatherDisplay:10.37,2013-08-09 07:02:00,
2013-08-09 02:07:00,82.4,69.4,29.85,SW,221,3.5,3.5,65,0.00,CLR,,0.00,WeatherDisplay:10.37,2013-08-09 07:07:00,
2013-08-09 02:12:00,82.4,69.4,29.85,WSW,240,3.5,3.5,65,0.00,CLR,,0.00,WeatherDisplay:10.37,2013-08-09 07:12:00,
2013-08-09 02:17:00,82.4,69.0,29.85,SW,223,3.5,3.5,64,0.00,CLR,,0.00,WeatherDisplay:10.37,2013-08-09 07:17:00,
2013-08-09 02:22:00,82.2,69.3,29.85,West,265,5.8,5.8,65,0.00,CLR,,0.00,WeatherDisplay:10.37,2013-08-09 07:22:00,
2013-08-09 02:27:00,82.2,68.8,29.85,WSW,247,5.8,5.8,64,0.00,CLR,,0.00,WeatherDisplay:10.37,2013-08-09 07:27:00,
2013-08-09 02:32:00,82.2,68.8,29.85,WNW,282,5.8,5.8,64,0.00,CLR,,0.00,WeatherDisplay:10.37,2013-08-09 07:32:00,
2013-08-09 02:37:00,82.0,68.7,29.85,WSW,246,3.5,3.5,64,0.00,CLR,,0.00,WeatherDisplay:10.37,2013-08-09 07:37:00,
2013-08-09 02:42:00,81.9,68.5,29.88,WSW,249,5.8,5.8,64,0.00,CLR,,0.00,WeatherDisplay:10.37,2013-08-09 07:42:00,
2013-08-09 02:47:00,81.9,68.0,29.88,SSW,212,4.0,4.0,63,0.00,CLR,,0.00,WeatherDisplay:10.37,2013-08-09 07:47:00,
2013-08-09 02:52:00,81.7,67.9,29.88,South,170,3.5,3.5,63,0.00,CLR,,0.00,WeatherDisplay:10.37,2013-08-09 07:52:00,
2013-08-09 02:57:00,81.7,67.9,29.88,WSW,242,5.4,5.4,63,0.00,CLR,,0.00,WeatherDisplay:10.37,2013-08-09 07:57:00,
2013-08-09 03:02:00,81.7,67.9,29.88,SSE,161,3.5,3.5,63,0.00,CLR,,0.00,WeatherDisplay:10.37,2013-08-09 08:02:00,
2013-08-09 03:07:00,81.5,68.1,29.88,WSW,252,5.4,5.4,64,0.00,CLR,,0.00,WeatherDisplay:10.37,2013-08-09 08:07:00,
2013-08-09 03:12:00,81.5,68.1,29.88,SW,231,3.5,3.5,64,0.00,CLR,,0.00,WeatherDisplay:10.37,2013-08-09 08:12:00,
2013-08-09 03:17:00,81.5,68.1,29.88,WSW,252,4.0,4.0,64,0.00,CLR,,0.00,WeatherDisplay:10.37,2013-08-09 08:17:00,
2013-08-09 03:22:00,81.5,68.1,29.88,WSW,254,4.6,4.6,64,0.00,CLR,,0.00,WeatherDisplay:10.37,2013-08-09 08:22:00,
2013-08-09 03:27:00,81.3,68.0,29.88,WSW,245,3.5,4.0,64,0.00,CLR,,0.00,WeatherDisplay:10.37,2013-08-09 08:27:00,
2013-08-09 03:32:00,81.3,68.0,29.88,WSW,239,3.5,3.5,64,0.00,CLR,,0.00,WeatherDisplay:10.37,2013-08-09 08:32:00,
2013-08-09 03:37:00,81.1,67.8,29.88,SE,131,3.5,3.5,64,0.00,CLR,,0.00,WeatherDisplay:10.37,2013-08-09 08:37:00,
2013-08-09 03:42:00,81.1,67.8,29.88,SSE,150,4.0,0.0,64,0.00,CLR,,0.00,WeatherDisplay:10.37,2013-08-09 08:42:00,
2013-08-09 03:47:00,81.0,67.6,29.88,SSW,204,4.0,0.0,64,0.00,CLR,,0.00,WeatherDisplay:10.37,2013-08-09 08:47:00,
2013-08-09 03:52:00,80.8,67.5,29.88,WSW,245,3.5,3.5,64,0.00,CLR,,0.00,WeatherDisplay:10.37,2013-08-09 08:52:00,
2013-08-09 03:57:00,80.8,67.9,29.88,WSW,254,4.0,4.0,65,0.00,CLR,,0.00,WeatherDisplay:10.37,2013-08-09 08:57:00,
2013-08-09 04:02:00,80.8,67.9,29.88,SW,216,5.8,5.8,65,0.00,CLR,,0.00,WeatherDisplay:10.37,2013-08-09 09:02:00,
2013-08-09 04:07:00,80.8,67.5,29.88,SW,231,5.8,5.8,64,0.00,CLR,,0.00,WeatherDisplay:10.37,2013-08-09 09:07:00,
2013-08-09 04:12:00,81.0,67.6,29.88,SW,233,6.9,6.9,64,0.00,CLR,,0.00,WeatherDisplay:10.37,2013-08-09 09:12:00,
2013-08-09 04:17:00,81.0,67.6,29.88,SW,231,8.1,8.1,64,0.00,CLR,,0.00,WeatherDisplay:10.37,2013-08-09 09:17:00,
2013-08-09 04:22:00,81.0,67.6,29.88,WSW,240,5.8,5.8,64,0.00,CLR,,0.00,WeatherDisplay:10.37,2013-08-09 09:22:00,
2013-08-09 04:27:00,80.8,67.5,29.88,SW,233,5.8,5.8,64,0.00,CLR,,0.00,WeatherDisplay:10.37,2013-08-09 09:27:00,
2013-08-09 04:32:00,80.6,67.3,29.88,WSW,237,5.8,5.8,64,0.00,CLR,,0.00,WeatherDisplay:10.37,2013-08-09 09:32:00,
2013-08-09 04:37:00,80.4,67.1,29.88,WSW,237,5.8,5.8,64,0.00,CLR,,0.00,WeatherDisplay:10.37,2013-08-09 09:37:00,
2013-08-09 04:42:00,80.4,67.1,29.88,WSW,256,5.8,0.0,64,0.00,CLR,,0.00,WeatherDisplay:10.37,2013-08-09 09:42:00,
2013-08-09 04:47:00,80.4,67.1,29.88,SW,227,3.5,3.5,64,0.00,CLR,,0.00,WeatherDisplay:10.37,2013-08-09 09:47:00,
2013-08-09 04:52:00,80.1,66.8,29.88,WSW,239,3.5,3.6,64,0.00,CLR,,0.00,WeatherDisplay:10.37,2013-08-09 09:52:00,
2013-08-09 04:57:00,80.1,66.8,29.88,SW,228,4.9,4.9,64,0.00,CLR,,0.00,WeatherDisplay:10.37,2013-08-09 09:57:00,
2013-08-09 05:02:00,79.9,66.6,29.88,WSW,252,5.8,5.8,64,0.00,CLR,,0.00,WeatherDisplay:10.37,2013-08-09 10:02:00,
2013-08-09 05:07:00,79.7,66.4,29.88,WSW,247,5.8,5.8,64,0.00,CLR,,0.00,WeatherDisplay:10.37,2013-08-09 10:07:00,
2013-08-09 05:12:00,79.5,66.3,29.88,WSW,240,3.5,3.6,64,0.00,CLR,,0.00,WeatherDisplay:10.37,2013-08-09 10:12:00,
2013-08-09 05:17:00,79.3,66.5,29.88,SSW,193,3.5,3.5,65,0.00,CLR,,0.00,WeatherDisplay:10.37,2013-08-09 10:17:00,
2013-08-09 05:22:00,79.2,66.4,29.88,WSW,247,3.6,3.6,65,0.00,CLR,,0.00,WeatherDisplay:10.37,2013-08-09 10:22:00,
2013-08-09 05:27:00,79.2,66.4,29.88,SW,219,3.5,3.5,65,0.00,CLR,,0.00,WeatherDisplay:10.37,2013-08-09 10:27:00,
2013-08-09 05:32:00,79.2,66.4,29.88,West,260,5.8,5.8,65,0.00,CLR,,0.00,WeatherDisplay:10.37,2013-08-09 10:32:00,
2013-08-09 05:37:00,79.2,66.4,29.88,West,259,3.6,3.6,65,0.00,CLR,,0.00,WeatherDisplay:10.37,2013-08-09 10:37:00,
2013-08-09 05:42:00,79.0,66.6,29.88,WSW,256,5.8,5.8,66,0.00,CLR,,0.00,WeatherDisplay:10.37,2013-08-09 10:42:00,
2013-08-09 05:47:00,79.0,66.6,29.88,SSW,204,5.8,5.8,66,0.00,CLR,,0.00,WeatherDisplay:10.37,2013-08-09 10:47:00,
2013-08-09 05:52:00,79.0,66.6,29.88,SSW,200,4.6,4.6,66,0.00,CLR,,0.00,WeatherDisplay:10.37,2013-08-09 10:52:00,
2013-08-09 05:57:00,78.8,66.5,29.88,SW,225,4.6,4.6,66,0.00,CLR,,0.00,WeatherDisplay:10.37,2013-08-09 10:57:00,
2013-08-09 06:02:00,78.6,66.3,29.88,South,174,3.5,3.5,66,0.00,CLR,,0.00,WeatherDisplay:10.37,2013-08-09 11:02:00,
2013-08-09 06:07:00,78.6,66.3,29.88,WNW,283,3.5,3.5,66,0.00,CLR,,0.00,WeatherDisplay:10.37,2013-08-09 11:07:00,
2013-08-09 06:12:00,78.6,66.3,29.91,SW,233,3.5,3.5,66,0.00,CLR,,0.00,WeatherDisplay:10.37,2013-08-09 11:12:00,
2013-08-09 06:17:00,78.4,66.6,29.91,SSW,207,3.5,3.5,67,0.00,CLR,,0.00,WeatherDisplay:10.37,2013-08-09 11:17:00,
2013-08-09 06:22:00,78.4,66.6,29.91,WSW,239,3.5,3.5,67,0.00,CLR,,0.00,WeatherDisplay:10.37,2013-08-09 11:22:00,
2013-08-09 06:27:00,78.4,66.6,29.91,South,175,5.8,5.8,67,0.00,CLR,,0.00,WeatherDisplay:10.37,2013-08-09 11:27:00,
2013-08-09 06:32:00,78.4,66.6,29.91,SSW,202,3.5,3.5,67,0.00,CLR,,0.00,WeatherDisplay:10.37,2013-08-09 11:32:00,
2013-08-09 06:37:00,78.3,66.4,29.91,South,174,3.5,3.5,67,0.00,CLR,,0.00,WeatherDisplay:10.37,2013-08-09 11:37:00,
2013-08-09 06:42:00,78.3,66.4,29.91,SSW,193,2.3,2.3,67,0.00,CLR,,0.00,WeatherDisplay:10.37,2013-08-09 11:42:00,
2013-08-09 06:47:00,78.1,66.2,29.91,SW,235,4.0,4.0,67,0.00,CLR,,0.00,WeatherDisplay:10.37,2013-08-09 11:47:00,
2013-08-09 06:52:00,78.1,66.2,29.91,SW,234,3.5,3.6,67,0.00,CLR,,0.00,WeatherDisplay:10.37,2013-08-09 11:52:00,
2013-08-09 06:57:00,78.1,66.2,29.91,WSW,243,3.5,3.5,67,0.00,CLR,,0.00,WeatherDisplay:10.37,2013-08-09 11:57:00,
2013-08-09 07:02:00,78.1,66.2,29.91,SW,228,6.3,6.3,67,0.00,CLR,,0.00,WeatherDisplay:10.37,2013-08-09 12:02:00,
2013-08-09 07:07:00,78.3,66.4,29.91,SW,221,4.6,4.6,67,0.00,CLR,,0.00,WeatherDisplay:10.37,2013-08-09 12:07:00,
2013-08-09 07:12:00,78.3,66.4,29.91,SW,234,4.6,4.6,67,0.00,CLR,,0.00,WeatherDisplay:10.37,2013-08-09 12:12:00,
2013-08-09 07:17:00,78.4,66.6,29.91,SSW,209,5.8,5.8,67,0.00,CLR,,0.00,WeatherDisplay:10.37,2013-08-09 12:17:00,
2013-08-09 07:22:00,78.4,66.6,29.91,SSW,199,4.6,4.6,67,0.00,CLR,,0.00,WeatherDisplay:10.37,2013-08-09 12:22:00,
2013-08-09 07:27:00,78.4,66.6,29.94,WSW,251,4.0,4.0,67,0.00,CLR,,0.00,WeatherDisplay:10.37,2013-08-09 12:27:00,
2013-08-09 07:32:00,78.6,66.7,29.94,WSW,250,3.5,3.5,67,0.00,CLR,,0.00,WeatherDisplay:10.37,2013-08-09 12:32:00,
2013-08-09 07:37:00,78.6,67.2,29.94,WSW,255,4.6,4.6,68,0.00,CLR,,0.00,WeatherDisplay:10.37,2013-08-09 12:37:00,
2013-08-09 07:42:00,78.6,67.2,29.94,SW,227,3.5,4.0,68,0.00,CLR,,0.00,WeatherDisplay:10.37,2013-08-09 12:42:00,
2013-08-09 07:47:00,78.6,67.2,29.94,SW,228,5.8,5.8,68,0.00,CLR,,0.00,WeatherDisplay:10.37,2013-08-09 12:47:00,
2013-08-09 07:52:00,78.8,67.3,29.94,West,259,6.3,6.3,68,0.00,CLR,,0.00,WeatherDisplay:10.37,2013-08-09 12:52:00,
2013-08-09 07:57:00,79.0,67.5,29.94,West,267,5.8,5.8,68,0.00,CLR,,0.00,WeatherDisplay:10.37,2013-08-09 12:57:00,
2013-08-09 08:02:00,79.0,67.5,29.94,WSW,238,8.1,8.1,68,0.00,CLR,,0.00,WeatherDisplay:10.37,2013-08-09 13:02:00,
2013-08-09 08:07:00,79.2,67.7,29.94,WSW,241,8.1,8.1,68,0.00,CLR,,0.00,WeatherDisplay:10.37,2013-08-09 13:07:00,
2013-08-09 08:12:00,79.5,68.0,29.94,WSW,246,5.8,5.8,68,0.00,CLR,,0.00,WeatherDisplay:10.37,2013-08-09 13:12:00,
2013-08-09 08:17:00,79.9,68.8,29.94,SW,225,5.8,5.8,69,0.00,CLR,,0.00,WeatherDisplay:10.37,2013-08-09 13:17:00,
2013-08-09 08:22:00,80.1,69.0,29.94,SW,229,5.8,5.8,69,0.00,CLR,,0.00,WeatherDisplay:10.37,2013-08-09 13:22:00,
2013-08-09 08:27:00,80.2,69.1,29.94,SW,235,5.8,5.8,69,0.00,CLR,,0.00,WeatherDisplay:10.37,2013-08-09 13:27:00,
2013-08-09 08:32:00,80.6,69.1,29.94,SSW,213,5.8,5.8,68,0.00,CLR,,0.00,WeatherDisplay:10.37,2013-08-09 13:32:00,
2013-08-09 08:37:00,80.8,69.2,29.94,WSW,243,8.1,8.1,68,0.00,CLR,,0.00,WeatherDisplay:10.37,2013-08-09 13:37:00,
2013-08-09 08:42:00,81.1,69.6,29.94,SSW,195,5.8,5.8,68,0.00,CLR,,0.00,WeatherDisplay:10.37,2013-08-09 13:42:00,
2013-08-09 08:47:00,81.9,70.3,29.94,SW,225,8.1,8.1,68,0.00,CLR,,0.00,WeatherDisplay:10.37,2013-08-09 13:47:00,
2013-08-09 08:52:00,82.4,70.8,29.94,SSE,166,6.3,6.3,68,0.00,CLR,,0.00,WeatherDisplay:10.37,2013-08-09 13:52:00,
2013-08-09 08:57:00,83.1,71.0,29.94,SSW,204,5.8,5.8,67,0.00,CLR,,0.00,WeatherDisplay:10.37,2013-08-09 13:57:00,
2013-08-09 09:02:00,83.7,71.5,29.94,West,263,5.8,5.8,67,0.00,CLR,,0.00,WeatherDisplay:10.37,2013-08-09 14:02:00,
2013-08-09 09:07:00,84.2,71.6,29.94,SSE,156,5.8,5.8,66,0.00,CLR,,0.00,WeatherDisplay:10.37,2013-08-09 14:07:00,
2013-08-09 09:12:00,84.4,71.3,29.94,South,190,5.8,6.3,65,0.00,CLR,,0.00,WeatherDisplay:10.37,2013-08-09 14:12:00,
2013-08-09 09:17:00,84.6,71.5,29.94,SW,232,9.2,9.2,65,0.00,CLR,,0.00,WeatherDisplay:10.37,2013-08-09 14:17:00,
2013-08-09 09:22:00,84.6,71.5,29.94,SW,226,9.2,9.2,65,0.00,CLR,,0.00,WeatherDisplay:10.37,2013-08-09 14:22:00,
2013-08-09 09:27:00,84.6,71.0,29.94,SSW,204,5.8,5.8,64,0.00,CLR,,0.00,WeatherDisplay:10.37,2013-08-09 14:27:00,
2013-08-09 09:32:00,84.9,71.4,29.94,WSW,244,8.1,8.1,64,0.00,CLR,,0.00,WeatherDisplay:10.37,2013-08-09 14:32:00,
2013-08-09 09:37:00,85.1,71.1,29.94,SSW,209,8.1,8.1,63,0.00,CLR,,0.00,WeatherDisplay:10.37,2013-08-09 14:37:00,
2013-08-09 09:42:00,85.3,71.3,29.94,South,190,9.2,9.2,63,0.00,CLR,,0.00,WeatherDisplay:10.37,2013-08-09 14:42:00,
2013-08-09 09:47:00,85.5,71.0,29.94,South,178,5.8,5.8,62,0.00,CLR,,0.00,WeatherDisplay:10.37,2013-08-09 14:47:00,
2013-08-09 09:52:00,85.8,71.3,29.94,WSW,249,5.8,5.8,62,0.00,CLR,,0.00,WeatherDisplay:10.37,2013-08-09 14:52:00,
2013-08-09 09:57:00,86.0,71.0,29.94,SW,232,8.1,8.1,61,0.00,CLR,,0.00,WeatherDisplay:10.37,2013-08-09 14:57:00,
2013-08-09 10:02:00,86.2,70.7,29.94,WSW,249,5.8,5.8,60,0.00,CLR,,0.00,WeatherDisplay:10.37,2013-08-09 15:02:00,
2013-08-09 10:07:00,86.4,70.8,29.94,South,190,8.1,8.1,60,0.00,CLR,,0.00,WeatherDisplay:10.37,2013-08-09 15:07:00,
2013-08-09 10:12:00,86.4,70.3,29.94,South,184,5.8,5.8,59,0.00,CLR,,0.00,WeatherDisplay:10.37,2013-08-09 15:12:00,
2013-08-09 10:17:00,86.5,71.0,29.94,WSW,243,7.6,7.6,60,0.00,CLR,,0.00,WeatherDisplay:10.37,2013-08-09 15:17:00,
2013-08-09 10:22:00,86.7,71.2,29.94,SSW,203,8.1,8.1,60,0.00,CLR,,0.00,WeatherDisplay:10.37,2013-08-09 15:22:00,
2013-08-09 10:27:00,86.9,70.8,29.94,SSW,194,8.1,8.1,59,0.00,CLR,,0.00,WeatherDisplay:10.37,2013-08-09 15:27:00,
2013-08-09 10:32:00,87.1,71.0,29.94,South,181,4.9,6.7,59,0.00,CLR,,0.00,WeatherDisplay:10.37,2013-08-09 15:32:00,
2013-08-09 10:38:00,87.3,71.2,29.94,WSW,250,3.6,4.5,59,0.00,CLR,,0.00,WeatherDisplay:10.37,2013-08-09 15:38:00,
2013-08-09 10:43:00,87.6,71.5,29.97,SSW,211,7.6,7.6,59,0.00,CLR,,0.00,WeatherDisplay:10.37,2013-08-09 15:43:00,
2013-08-09 10:48:00,88.0,71.3,29.97,SW,232,8.1,8.1,58,0.00,CLR,,0.00,WeatherDisplay:10.37,2013-08-09 15:48:00,
2013-08-09 10:53:00,88.2,71.5,29.97,WSW,247,6.9,6.9,58,0.00,CLR,,0.00,WeatherDisplay:10.37,2013-08-09 15:53:00,
2013-08-09 10:58:00,88.3,71.2,29.94,WSW,237,6.9,6.9,57,0.00,CLR,,0.00,WeatherDisplay:10.37,2013-08-09 15:58:00,
2013-08-09 11:03:00,88.5,70.8,29.94,WSW,242,8.1,8.1,56,0.00,CLR,,0.00,WeatherDisplay:10.37,2013-08-09 16:03:00,
2013-08-09 11:08:00,88.7,71.0,29.94,SSW,205,6.3,6.3,56,0.00,CLR,,0.00,WeatherDisplay:10.37,2013-08-09 16:08:00,
2013-08-09 11:13:00,89.1,70.3,29.94,West,276,10.9,10.9,54,0.00,CLR,,0.00,WeatherDisplay:10.37,2013-08-09 16:13:00,
2013-08-09 11:18:00,89.2,70.4,29.94,WSW,258,3.5,0.0,54,0.00,CLR,,0.00,WeatherDisplay:10.37,2013-08-09 16:18:00,
2013-08-09 11:23:00,89.6,70.8,29.94,SSE,155,8.1,8.1,54,0.00,CLR,,0.00,WeatherDisplay:10.37,2013-08-09 16:23:00,
2013-08-09 11:28:00,90.0,70.5,29.97,SSE,162,9.2,9.2,53,0.00,CLR,,0.00,WeatherDisplay:10.37,2013-08-09 16:28:00,
2013-08-09 11:33:00,90.0,70.5,29.97,WSW,246,4.6,4.6,53,0.00,CLR,,0.00,WeatherDisplay:10.37,2013-08-09 16:33:00,
2013-08-09 11:38:00,90.3,70.9,29.97,SSW,198,8.1,8.1,53,0.00,CLR,,0.00,WeatherDisplay:10.37,2013-08-09 16:38:00,
2013-08-09 11:43:00,90.7,69.5,29.94,SE,139,4.6,0.0,50,0.00,CLR,,0.00,WeatherDisplay:10.37,2013-08-09 16:43:00,
2013-08-09 11:48:00,90.9,69.7,29.94,ESE,103,9.2,9.2,50,0.00,CLR,,0.00,WeatherDisplay:10.37,2013-08-09 16:48:00,
2013-08-09 11:53:00,91.0,69.2,29.94,South,172,5.8,5.8,49,0.00,CLR,,0.00,WeatherDisplay:10.37,2013-08-09 16:53:00,
2013-08-09 11:58:00,91.2,67.5,29.94,WSW,252,9.2,9.2,46,0.00,CLR,,0.00,WeatherDisplay:10.37,2013-08-09 16:58:00,
2013-08-09 12:03:00,91.2,67.5,29.94,SW,233,5.8,5.8,46,0.00,CLR,,0.00,WeatherDisplay:10.37,2013-08-09 17:03:00,
2013-08-09 12:08:00,91.2,68.2,29.94,WSW,256,5.8,5.8,47,0.00,CLR,,0.00,WeatherDisplay:10.37,2013-08-09 17:08:00,
2013-08-09 12:13:00,91.4,67.7,29.94,WSW,246,5.8,5.8,46,0.00,CLR,,0.00,WeatherDisplay:10.37,2013-08-09 17:13:00,
2013-08-09 12:18:00,91.9,67.6,29.94,WSW,255,5.8,5.8,45,0.00,CLR,,0.00,WeatherDisplay:10.37,2013-08-09 17:18:00,
2013-08-09 12:23:00,91.8,66.7,29.94,West,273,4.0,4.0,44,0.00,CLR,,0.00,WeatherDisplay:10.37,2013-08-09 17:23:00,
2013-08-09 12:28:00,92.5,66.1,29.94,WSW,244,9.2,9.2,42,0.00,CLR,,0.00,WeatherDisplay:10.37,2013-08-09 17:28:00,
2013-08-09 12:33:00,92.8,66.4,29.94,South,185,5.8,5.8,42,0.00,CLR,,0.00,WeatherDisplay:10.37,2013-08-09 17:33:00,
2013-08-09 12:38:00,92.8,65.7,29.94,SSW,210,7.6,7.6,41,0.00,CLR,,0.00,WeatherDisplay:10.37,2013-08-09 17:38:00,
2013-08-09 12:43:00,92.8,65.0,29.94,SW,235,8.7,8.7,40,0.00,CLR,,0.00,WeatherDisplay:10.37,2013-08-09 17:43:00,
2013-08-09 12:48:00,93.4,63.2,29.94,WSW,247,7.2,7.2,37,0.00,CLR,,0.00,WeatherDisplay:10.37,2013-08-09 17:48:00,
2013-08-09 12:53:00,93.2,63.8,29.94,SW,234,3.6,3.6,38,0.00,CLR,,0.00,WeatherDisplay:10.37,2013-08-09 17:53:00,
2013-08-09 12:58:00,93.7,63.5,29.94,WSW,252,8.1,8.1,37,0.00,CLR,,0.00,WeatherDisplay:10.37,2013-08-09 17:58:00,
2013-08-09 13:03:00,93.9,62.9,29.94,SSW,193,5.8,5.8,36,0.00,CLR,,0.00,WeatherDisplay:10.37,2013-08-09 18:03:00,
2013-08-09 13:08:00,94.3,63.2,29.94,WSW,254,9.2,9.2,36,0.00,CLR,,0.00,WeatherDisplay:10.37,2013-08-09 18:08:00,
2013-08-09 13:13:00,94.5,60.9,29.94,West,264,8.1,8.1,33,0.00,CLR,,0.00,WeatherDisplay:10.37,2013-08-09 18:13:00,
2013-08-09 13:18:00,94.6,61.1,29.94,SSW,210,5.8,5.8,33,0.00,CLR,,0.00,WeatherDisplay:10.37,2013-08-09 18:18:00,
2013-08-09 13:23:00,94.8,61.2,29.94,SSW,204,10.4,10.4,33,0.00,CLR,,0.00,WeatherDisplay:10.37,2013-08-09 18:23:00,
2013-08-09 13:29:00,94.8,60.4,29.94,West,263,6.3,6.3,32,0.00,CLR,,0.00,WeatherDisplay:10.37,2013-08-09 18:29:00,
2013-08-09 13:34:00,95.0,60.5,29.94,South,180,5.8,5.8,32,0.00,CLR,,0.00,WeatherDisplay:10.37,2013-08-09 18:34:00,
2013-08-09 13:39:00,95.0,60.5,29.94,WSW,257,10.4,10.4,32,0.00,CLR,,0.00,WeatherDisplay:10.37,2013-08-09 18:39:00,
2013-08-09 13:44:00,95.2,59.8,29.94,SSW,204,8.1,8.1,31,0.00,CLR,,0.00,WeatherDisplay:10.37,2013-08-09 18:44:00,
2013-08-09 13:49:00,95.4,59.9,29.94,WSW,251,5.8,5.8,31,0.00,CLR,,0.00,WeatherDisplay:10.37,2013-08-09 18:49:00,
2013-08-09 13:54:00,95.5,59.2,29.94,SSE,147,5.8,5.8,30,0.00,CLR,,0.00,WeatherDisplay:10.37,2013-08-09 18:54:00,
2013-08-09 13:59:00,95.5,58.2,29.91,West,265,8.1,8.1,29,0.00,CLR,,0.00,WeatherDisplay:10.37,2013-08-09 18:59:00,
2013-08-09 14:04:00,95.7,60.2,29.91,SE,125,5.4,5.4,31,0.00,CLR,,0.00,WeatherDisplay:10.37,2013-08-09 19:04:00,
2013-08-09 14:09:00,95.4,59.9,29.91,SSE,155,3.5,3.5,31,0.00,CLR,,0.00,WeatherDisplay:10.37,2013-08-09 19:09:00,
2013-08-09 14:14:00,95.7,58.4,29.91,West,265,8.1,8.1,29,0.00,CLR,,0.00,WeatherDisplay:10.37,2013-08-09 19:14:00,
2013-08-09 14:19:00,96.1,58.7,29.91,SW,231,8.1,8.1,29,0.00,CLR,,0.00,WeatherDisplay:10.37,2013-08-09 19:19:00,
2013-08-09 14:24:00,95.9,57.6,29.91,SW,235,10.4,10.4,28,0.00,CLR,,0.00,WeatherDisplay:10.37,2013-08-09 19:24:00,
2013-08-09 14:29:00,96.1,57.7,29.91,South,181,5.8,5.8,28,0.00,CLR,,0.00,WeatherDisplay:10.37,2013-08-09 19:29:00,
2013-08-09 14:34:00,95.9,57.6,29.91,South,188,8.1,8.1,28,0.00,CLR,,0.00,WeatherDisplay:10.37,2013-08-09 19:34:00,
2013-08-09 14:39:00,96.1,58.7,29.91,SSW,197,5.8,5.8,29,0.00,CLR,,0.00,WeatherDisplay:10.37,2013-08-09 19:39:00,
2013-08-09 14:44:00,96.4,59.0,29.91,WSW,250,6.3,6.3,29,0.00,CLR,,0.00,WeatherDisplay:10.37,2013-08-09 19:44:00,
2013-08-09 14:49:00,96.3,58.8,29.91,SSW,211,5.8,5.8,29,0.00,CLR,,0.00,WeatherDisplay:10.37,2013-08-09 19:49:00,
2013-08-09 14:54:00,96.3,56.8,29.91,SE,143,4.6,4.6,27,0.00,CLR,,0.00,WeatherDisplay:10.37,2013-08-09 19:54:00,
2013-08-09 14:59:00,96.1,56.7,29.91,SW,233,6.3,6.3,27,0.00,CLR,,0.00,WeatherDisplay:10.37,2013-08-09 19:59:00,
2013-08-09 15:04:00,96.6,57.2,29.91,West,264,5.8,5.8,27,0.00,CLR,,0.00,WeatherDisplay:10.37,2013-08-09 20:04:00,
2013-08-09 15:09:00,96.6,57.2,29.91,West,271,5.8,5.8,27,0.00,CLR,,0.00,WeatherDisplay:10.37,2013-08-09 20:09:00,
2013-08-09 15:14:00,96.4,57.0,29.91,WSW,243,3.6,4.0,27,0.00,CLR,,0.00,WeatherDisplay:10.37,2013-08-09 20:14:00,
2013-08-09 15:19:00,96.4,58.0,29.91,SW,218,5.8,5.8,28,0.00,CLR,,0.00,WeatherDisplay:10.37,2013-08-09 20:19:00,
2013-08-09 15:24:00,96.4,57.0,29.91,SW,232,6.9,6.9,27,0.00,CLR,,0.00,WeatherDisplay:10.37,2013-08-09 20:24:00,
2013-08-09 15:29:00,96.4,57.0,29.91,SW,216,8.1,8.1,27,0.00,CLR,,0.00,WeatherDisplay:10.37,2013-08-09 20:29:00,
2013-08-09 15:34:00,96.3,56.8,29.91,SSW,209,7.6,7.6,27,0.00,CLR,,0.00,WeatherDisplay:10.37,2013-08-09 20:34:00,
2013-08-09 15:39:00,96.6,57.2,29.91,SW,218,8.1,8.1,27,0.00,CLR,,0.00,WeatherDisplay:10.37,2013-08-09 20:39:00,
2013-08-09 15:44:00,96.4,56.0,29.91,SW,233,2.3,0.0,26,0.00,CLR,,0.00,WeatherDisplay:10.37,2013-08-09 20:44:00,
2013-08-09 15:49:00,96.3,56.8,29.91,SSW,202,8.1,8.1,27,0.00,CLR,,0.00,WeatherDisplay:10.37,2013-08-09 20:49:00,
2013-08-09 15:54:00,96.8,56.3,29.91,West,265,5.8,5.8,26,0.00,CLR,,0.00,WeatherDisplay:10.37,2013-08-09 20:54:00,
2013-08-09 15:59:00,96.4,57.0,29.91,North,349,2.3,0.0,27,0.00,CLR,,0.00,WeatherDisplay:10.37,2013-08-09 20:59:00,
2013-08-09 16:04:00,96.4,57.0,29.91,South,187,5.8,5.8,27,0.00,CLR,,0.00,WeatherDisplay:10.37,2013-08-09 21:04:00,
2013-08-09 16:09:00,96.8,56.3,29.91,SSW,195,3.5,3.5,26,0.00,CLR,,0.00,WeatherDisplay:10.37,2013-08-09 21:09:00,
2013-08-09 16:14:00,96.6,57.2,29.88,WSW,250,3.5,0.0,27,0.00,CLR,,0.00,WeatherDisplay:10.37,2013-08-09 21:14:00,
2013-08-09 16:19:00,97.0,56.4,29.88,West,263,8.1,8.1,26,0.00,CLR,,0.00,WeatherDisplay:10.37,2013-08-09 21:19:00,
2013-08-09 16:24:00,97.2,56.6,29.88,South,170,5.8,5.8,26,0.00,CLR,,0.00,WeatherDisplay:10.37,2013-08-09 21:24:00,
2013-08-09 16:29:00,97.0,56.4,29.88,SW,228,5.8,5.8,26,0.00,CLR,,0.00,WeatherDisplay:10.37,2013-08-09 21:29:00,
2013-08-09 16:34:00,96.4,57.0,29.88,SSE,155,3.5,3.5,27,0.00,CLR,,0.00,WeatherDisplay:10.37,2013-08-09 21:34:00,
2013-08-09 16:39:00,96.3,56.8,29.88,ESE,104,3.6,3.6,27,0.00,CLR,,0.00,WeatherDisplay:10.37,2013-08-09 21:39:00,
2013-08-09 16:44:00,96.3,56.8,29.88,ENE,71,3.5,3.5,27,0.00,CLR,,0.00,WeatherDisplay:10.37,2013-08-09 21:44:00,
2013-08-09 16:49:00,96.6,56.1,29.88,SSW,192,5.8,5.8,26,0.00,CLR,,0.00,WeatherDisplay:10.37,2013-08-09 21:49:00,
2013-08-09 16:54:00,96.8,56.3,29.88,SW,220,8.1,8.1,26,0.00,CLR,,0.00,WeatherDisplay:10.37,2013-08-09 21:54:00,
2013-08-09 16:59:00,97.0,56.4,29.88,SW,219,5.8,5.8,26,0.00,CLR,,0.00,WeatherDisplay:10.37,2013-08-09 21:59:00,
2013-08-09 17:04:00,96.6,57.2,29.88,East,90,3.5,3.5,27,0.00,CLR,,0.00,WeatherDisplay:10.37,2013-08-09 22:04:00,
2013-08-09 17:09:00,96.6,55.0,29.88,WSW,240,5.8,5.8,25,0.00,CLR,,0.00,WeatherDisplay:10.37,2013-08-09 22:09:00,
2013-08-09 17:14:00,96.4,56.0,29.88,SW,225,3.5,3.5,26,0.00,CLR,,0.00,WeatherDisplay:10.37,2013-08-09 22:14:00,
2013-08-09 17:19:00,96.6,50.3,29.88,SW,232,4.6,4.6,21,0.00,CLR,,0.00,WeatherDisplay:10.37,2013-08-09 22:19:00,
2013-08-09 17:24:00,96.8,51.7,29.88,WSW,251,5.8,5.8,22,0.00,CLR,,0.00,WeatherDisplay:10.37,2013-08-09 22:24:00,
2013-08-09 17:29:00,97.3,48.2,29.85,WSW,238,5.8,5.8,19,0.00,CLR,,0.00,WeatherDisplay:10.37,2013-08-09 22:29:00,
2013-08-09 17:34:00,97.2,48.0,29.85,SSE,158,4.6,4.6,19,0.00,CLR,,0.00,WeatherDisplay:10.37,2013-08-09 22:34:00,
2013-08-09 17:39:00,97.0,50.6,29.85,ESE,117,4.6,4.6,21,0.00,CLR,,0.00,WeatherDisplay:10.37,2013-08-09 22:39:00,
2013-08-09 17:44:00,97.0,49.3,29.88,WSW,240,4.9,4.9,20,0.00,CLR,,0.00,WeatherDisplay:10.37,2013-08-09 22:44:00,
2013-08-09 17:49:00,97.0,47.9,29.88,SE,132,4.6,4.6,19,0.00,CLR,,0.00,WeatherDisplay:10.37,2013-08-09 22:49:00,
2013-08-09 17:54:00,97.0,47.9,29.88,WSW,248,10.4,10.4,19,0.00,CLR,,0.00,WeatherDisplay:10.37,2013-08-09 22:54:00,
2013-08-09 17:59:00,97.0,46.5,29.85,WSW,253,5.8,5.8,18,0.00,CLR,,0.00,WeatherDisplay:10.37,2013-08-09 22:59:00,
2013-08-09 18:04:00,96.8,44.8,29.85,SSW,207,2.3,0.0,17,0.00,CLR,,0.00,WeatherDisplay:10.37,2013-08-09 23:04:00,
2013-08-09 18:09:00,96.8,44.8,29.85,SSE,151,4.6,4.6,17,0.00,CLR,,0.00,WeatherDisplay:10.37,2013-08-09 23:09:00,
2013-08-09 18:14:00,97.0,44.9,29.88,WSW,241,3.6,3.6,17,0.00,CLR,,0.00,WeatherDisplay:10.37,2013-08-09 23:14:00,
2013-08-09 18:19:00,97.0,44.9,29.88,WSW,247,3.5,3.6,17,0.00,CLR,,0.00,WeatherDisplay:10.37,2013-08-09 23:19:00,
2013-08-09 18:24:00,97.0,44.9,29.88,WSW,243,5.8,5.8,17,0.00,CLR,,0.00,WeatherDisplay:10.37,2013-08-09 23:24:00,
2013-08-09 18:29:00,97.0,43.4,29.88,SW,218,5.8,5.8,16,0.00,CLR,,0.00,WeatherDisplay:10.37,2013-08-09 23:29:00,
2013-08-09 18:34:00,97.2,26.1,29.88,SW,230,8.1,8.1,8,0.00,CLR,,0.00,WeatherDisplay:10.37,2013-08-09 23:34:00,
2013-08-09 18:39:00,97.0,38.0,29.88,SW,216,8.1,8.1,13,0.00,CLR,,0.00,WeatherDisplay:10.37,2013-08-09 23:39:00,
2013-08-09 18:44:00,97.0,33.8,29.88,South,177,3.5,3.5,11,0.00,CLR,,0.00,WeatherDisplay:10.37,2013-08-09 23:44:00,
2013-08-09 18:49:00,96.8,25.8,29.88,SW,227,6.3,6.3,8,0.00,CLR,,0.00,WeatherDisplay:10.37,2013-08-09 23:49:00,
2013-08-09 18:54:00,96.6,39.6,29.88,ENE,65,3.5,3.5,14,0.00,CLR,,0.00,WeatherDisplay:10.37,2013-08-09 23:54:00,
2013-08-09 18:59:00,96.1,33.1,29.88,South,191,4.0,4.0,11,0.00,CLR,,0.00,WeatherDisplay:10.37,2013-08-09 23:59:00,
2013-08-09 19:04:00,95.9,32.9,29.88,SW,230,5.8,5.8,11,0.00,CLR,,0.00,WeatherDisplay:10.37,2013-08-10 00:04:00,
2013-08-09 19:09:00,95.9,9.1,29.88,SW,233,5.8,5.8,4,0.00,CLR,,0.00,WeatherDisplay:10.37,2013-08-10 00:09:00,
2013-08-09 19:14:00,95.4,8.7,29.91,SSW,210,5.8,5.8,4,0.00,CLR,,0.00,WeatherDisplay:10.37,2013-08-10 00:14:00,
2013-08-09 19:19:00,95.0,8.5,29.91,SSW,210,3.5,3.5,4,0.00,CLR,,0.00,WeatherDisplay:10.37,2013-08-10 00:19:00,
2013-08-09 19:24:00,94.3,31.7,29.91,SW,224,4.0,4.0,11,0.00,CLR,,0.00,WeatherDisplay:10.37,2013-08-10 00:24:00,
2013-08-09 19:29:00,93.7,31.3,29.88,SW,230,3.6,3.6,11,0.00,CLR,,0.00,WeatherDisplay:10.37,2013-08-10 00:29:00,
2013-08-09 19:34:00,93.6,26.2,29.88,West,260,3.6,3.6,9,0.00,CLR,,0.00,WeatherDisplay:10.37,2013-08-10 00:34:00,
2013-08-09 19:39:00,93.2,30.9,29.88,West,267,4.0,4.0,11,0.00,CLR,,0.00,WeatherDisplay:10.37,2013-08-10 00:39:00,
2013-08-09 19:44:00,93.2,30.9,29.88,WSW,256,4.6,4.6,11,0.00,CLR,,0.00,WeatherDisplay:10.37,2013-08-10 00:44:00,
2013-08-09 19:49:00,93.2,30.9,29.88,SW,223,3.5,3.6,11,0.00,CLR,,0.00,WeatherDisplay:10.37,2013-08-10 00:49:00,
2013-08-09 19:54:00,92.7,41.5,29.88,SW,227,3.6,3.6,17,0.00,CLR,,0.00,WeatherDisplay:10.37,2013-08-10 00:54:00,
2013-08-09 19:59:00,92.3,41.2,29.88,WSW,244,3.5,3.5,17,0.00,CLR,,0.00,WeatherDisplay:10.37,2013-08-10 00:59:00,
2013-08-09 20:04:00,91.9,40.9,29.88,SSW,210,3.5,3.5,17,0.00,CLR,,0.00,WeatherDisplay:10.37,2013-08-10 01:04:00,
2013-08-09 20:09:00,91.6,40.6,29.88,SW,233,3.5,3.5,17,0.00,CLR,,0.00,WeatherDisplay:10.37,2013-08-10 01:09:00,
2013-08-09 20:14:00,91.4,40.5,29.88,WSW,240,0.0,0.0,17,0.00,CLR,,0.00,WeatherDisplay:10.37,2013-08-10 01:14:00,
2013-08-09 20:19:00,91.2,41.8,29.88,SE,127,0.0,0.0,18,0.00,CLR,,0.00,WeatherDisplay:10.37,2013-08-10 01:19:00,
2013-08-09 20:24:00,90.9,41.5,29.88,South,174,2.3,0.0,18,0.00,CLR,,0.00,WeatherDisplay:10.37,2013-08-10 01:24:00,
2013-08-09 20:29:00,90.5,45.2,29.91,NE,46,2.7,0.0,21,0.00,CLR,,0.00,WeatherDisplay:10.37,2013-08-10 01:29:00,
2013-08-09 20:34:00,90.1,46.2,29.91,East,95,3.5,0.0,22,0.00,CLR,,0.00,WeatherDisplay:10.37,2013-08-10 01:34:00,
2013-08-09 20:39:00,90.0,47.2,29.91,SE,143,0.0,0.0,23,0.00,CLR,,0.00,WeatherDisplay:10.37,2013-08-10 01:39:00,
2013-08-09 20:44:00,90.0,49.4,29.91,NE,48,0.0,0.0,25,0.00,CLR,,0.00,WeatherDisplay:10.37,2013-08-10 01:44:00,
2013-08-09 20:49:00,89.8,51.3,29.91,South,185,0.0,0.0,27,0.00,CLR,,0.00,WeatherDisplay:10.37,2013-08-10 01:49:00,
2013-08-09 20:54:00,89.8,52.3,29.91,South,172,2.3,0.0,28,0.00,CLR,,0.00,WeatherDisplay:10.37,2013-08-10 01:54:00,
2013-08-09 20:59:00,89.4,53.0,29.91,ENE,60,0.0,0.0,29,0.00,CLR,,0.00,WeatherDisplay:10.37,2013-08-10 01:59:00,
2013-08-09 21:04:00,89.2,53.7,29.91,NNE,30,2.3,0.0,30,0.00,CLR,,0.00,WeatherDisplay:10.37,2013-08-10 02:04:00,
2013-08-09 21:09:00,89.2,54.6,29.91,North,0,2.7,0.0,31,0.00,CLR,,0.00,WeatherDisplay:10.37,2013-08-10 02:09:00,
2013-08-09 21:14:00,89.2,53.7,29.91,North,4,2.3,2.3,30,0.00,CLR,,0.00,WeatherDisplay:10.37,2013-08-10 02:14:00,
2013-08-09 21:19:00,89.2,55.5,29.91,NNE,22,3.5,3.5,32,0.00,CLR,,0.00,WeatherDisplay:10.37,2013-08-10 02:19:00,
2013-08-09 21:24:00,89.2,55.5,29.91,North,357,5.8,5.8,32,0.00,CLR,,0.00,WeatherDisplay:10.37,2013-08-10 02:24:00,
2013-08-09 21:29:00,89.2,57.2,29.94,North,357,3.5,3.5,34,0.00,CLR,,0.00,WeatherDisplay:10.37,2013-08-10 02:29:00,
2013-08-09 21:34:00,89.1,57.0,29.94,North,353,3.6,3.6,34,0.00,CLR,,0.00,WeatherDisplay:10.37,2013-08-10 02:34:00,
2013-08-09 21:39:00,89.4,56.5,29.94,ENE,60,3.6,3.6,33,0.00,CLR,,0.00,WeatherDisplay:10.37,2013-08-10 02:39:00,
2013-08-09 21:44:00,89.2,56.4,29.94,NNE,27,4.0,4.0,33,0.00,CLR,,0.00,WeatherDisplay:10.37,2013-08-10 02:44:00,
2013-08-09 21:49:00,89.2,56.4,29.94,ENE,64,4.6,4.6,33,0.00,CLR,,0.00,WeatherDisplay:10.37,2013-08-10 02:49:00,
2013-08-09 21:54:00,88.7,55.9,29.94,ENE,59,4.6,0.0,33,0.00,CLR,,0.00,WeatherDisplay:10.37,2013-08-10 02:54:00,
2013-08-09 21:59:00,88.7,55.9,29.94,ENE,58,2.3,0.0,33,0.00,CLR,,0.00,WeatherDisplay:10.37,2013-08-10 02:59:00,
2013-08-09 22:04:00,88.7,55.9,29.94,ESE,106,2.3,0.0,33,0.00,CLR,,0.00,WeatherDisplay:10.37,2013-08-10 03:04:00,
2013-08-09 22:09:00,88.5,56.6,29.94,East,81,3.5,0.0,34,0.00,CLR,,0.00,WeatherDisplay:10.37,2013-08-10 03:09:00,
2013-08-09 22:14:00,88.3,56.4,29.94,North,0,2.2,0.0,34,0.00,CLR,,0.00,WeatherDisplay:10.37,2013-08-10 03:14:00,
2013-08-09 22:19:00,88.3,56.4,29.94,North,4,0.0,3.0,34,0.00,CLR,,0.00,WeatherDisplay:10.37,2013-08-10 03:19:00,
2013-08-09 22:20:00,88.3,56.4,29.94,North,0,3.5,0.0,34,0.00,CLR,,0.00,WeatherDisplay:10.37,2013-08-10 03:20:00,
2013-08-09 22:25:00,88.3,56.4,29.94,North,0,0.0,0.0,34,0.00,CLR,,0.00,WeatherDisplay:10.37,2013-08-10 03:25:00,
2013-08-09 22:30:00,88.5,56.6,29.94,North,0,0.0,0.0,34,0.00,CLR,,0.00,WeatherDisplay:10.37,2013-08-10 03:30:00,
2013-08-09 22:35:00,88.3,56.4,29.94,North,0,0.0,0.0,34,0.00,CLR,,0.00,WeatherDisplay:10.37,2013-08-10 03:35:00,
2013-08-09 22:40:00,88.2,56.3,29.94,WSW,252,0.0,0.0,34,0.00,CLR,,0.00,WeatherDisplay:10.37,2013-08-10 03:40:00,
2013-08-09 22:45:00,88.0,56.1,29.94,WSW,252,0.0,0.0,34,0.00,CLR,,0.00,WeatherDisplay:10.37,2013-08-10 03:45:00,
2013-08-09 22:50:00,88.0,56.1,29.94,WSW,244,0.0,0.0,34,0.00,CLR,,0.00,WeatherDisplay:10.37,2013-08-10 03:50:00,
2013-08-09 22:55:00,88.0,56.1,29.94,WSW,241,0.0,0.0,34,0.00,CLR,,0.00,WeatherDisplay:10.37,2013-08-10 03:55:00,
2013-08-09 23:00:00,87.8,55.9,29.94,WSW,241,0.0,0.0,34,0.00,CLR,,0.00,WeatherDisplay:10.37,2013-08-10 04:00:00,
2013-08-09 23:01:00,87.8,55.9,29.94,SW,236,0.0,0.0,34,0.00,CLR,,0.00,WeatherDisplay:10.37,2013-08-10 04:01:00,
2013-08-09 23:02:00,87.8,55.9,29.94,SW,236,0.0,0.0,34,0.00,CLR,,0.00,WeatherDisplay:10.37,2013-08-10 04:02:00,
2013-08-09 23:07:00,87.6,56.6,29.94,SW,236,0.0,0.0,35,0.00,CLR,,0.00,WeatherDisplay:10.37,2013-08-10 04:07:00,
2013-08-09 23:12:00,87.3,57.0,29.94,SW,236,0.0,0.0,36,0.00,CLR,,0.00,WeatherDisplay:10.37,2013-08-10 04:12:00,
2013-08-09 23:17:00,87.1,57.7,29.94,SW,236,0.0,0.0,37,0.00,CLR,,0.00,WeatherDisplay:10.37,2013-08-10 04:17:00,
2013-08-09 23:22:00,87.1,57.7,29.94,SW,236,0.0,0.0,37,0.00,CLR,,0.00,WeatherDisplay:10.37,2013-08-10 04:22:00,
2013-08-09 23:27:00,86.7,57.3,29.94,SW,236,0.0,0.0,37,0.00,CLR,,0.00,WeatherDisplay:10.37,2013-08-10 04:27:00,
2013-08-09 23:32:00,86.7,58.1,29.94,SW,236,0.0,0.0,38,0.00,CLR,,0.00,WeatherDisplay:10.37,2013-08-10 04:32:00,
2013-08-09 23:37:00,86.5,57.9,29.94,SW,236,0.0,0.0,38,0.00,CLR,,0.00,WeatherDisplay:10.37,2013-08-10 04:37:00,
2013-08-09 23:42:00,85.8,58.7,29.94,SW,236,0.0,0.0,40,0.00,CLR,,0.00,WeatherDisplay:10.37,2013-08-10 04:42:00,
2013-08-09 23:47:00,85.3,59.6,29.94,SW,236,0.0,0.0,42,0.00,CLR,,0.00,WeatherDisplay:10.37,2013-08-10 04:47:00,
2013-08-09 23:52:00,84.9,58.6,29.94,SW,236,0.0,0.0,41,0.00,CLR,,0.00,WeatherDisplay:10.37,2013-08-10 04:52:00,
2013-08-09 23:57:00,84.7,57.7,29.94,SW,236,0.0,0.0,40,0.00,CLR,,0.00,WeatherDisplay:10.37,2013-08-10 04:57:00,